Year,Month,Day,Hour,Minute,Value (Times are PST for temperature in C)
2018,05,06,00,00,12.80
2018,05,06,00,01,12.80
2018,05,06,00,02,12.80
2018,05,06,00,03,12.80
2018,05,06,00,04,12.80
2018,05,06,00,05,12.70
2018,05,06,00,06,12.70
2018,05,06,00,07,12.70
2018,05,06,00,08,12.70
2018,05,06,00,09,12.70
2018,05,06,00,10,12.70
2018,05,06,00,11,12.70
2018,05,06,00,12,12.70
2018,05,06,00,13,12.70
2018,05,06,00,14,12.70
2018,05,06,00,15,12.70
2018,05,06,00,16,12.70
2018,05,06,00,17,12.70
2018,05,06,00,18,12.70
2018,05,06,00,19,12.70
2018,05,06,00,20,12.60
2018,05,06,00,21,12.60
2018,05,06,00,22,12.60
2018,05,06,00,23,12.70
2018,05,06,00,24,12.80
2018,05,06,00,25,12.80
2018,05,06,00,26,12.90
2018,05,06,00,27,12.90
2018,05,06,00,28,12.90
2018,05,06,00,29,12.90
2018,05,06,00,30,12.90
2018,05,06,00,31,12.90
2018,05,06,00,32,12.90
2018,05,06,00,33,12.80
2018,05,06,00,34,12.80
2018,05,06,00,35,12.80
2018,05,06,00,36,12.80
2018,05,06,00,37,12.80
2018,05,06,00,38,12.70
2018,05,06,00,39,12.70
2018,05,06,00,40,12.70
2018,05,06,00,41,12.70
2018,05,06,00,42,12.70
2018,05,06,00,43,12.60
2018,05,06,00,44,12.60
2018,05,06,00,45,12.60
2018,05,06,00,46,12.60
2018,05,06,00,47,12.50
2018,05,06,00,48,12.50
2018,05,06,00,49,12.40
2018,05,06,00,50,12.40
2018,05,06,00,51,12.40
2018,05,06,00,52,12.30
2018,05,06,00,53,12.30
2018,05,06,00,54,12.30
2018,05,06,00,55,12.30
2018,05,06,00,56,12.30
2018,05,06,00,57,12.20
2018,05,06,00,58,12.20
2018,05,06,00,59,12.20
2018,05,06,01,00,12.20
2018,05,06,01,01,12.20
2018,05,06,01,02,12.20
2018,05,06,01,03,12.20
2018,05,06,01,04,12.10
2018,05,06,01,05,12.10
2018,05,06,01,06,12.10
2018,05,06,01,07,12.10
2018,05,06,01,08,12.10
2018,05,06,01,09,12.00
2018,05,06,01,10,12.00
2018,05,06,01,11,11.90
2018,05,06,01,12,11.90
2018,05,06,01,13,11.80
2018,05,06,01,14,11.80
2018,05,06,01,15,11.80
2018,05,06,01,16,11.70
2018,05,06,01,17,11.70
2018,05,06,01,18,11.70
2018,05,06,01,19,11.60
2018,05,06,01,20,11.60
2018,05,06,01,21,11.60
2018,05,06,01,22,11.60
2018,05,06,01,23,11.60
2018,05,06,01,24,11.60
2018,05,06,01,25,11.60
2018,05,06,01,26,11.60
2018,05,06,01,27,11.50
2018,05,06,01,28,11.50
2018,05,06,01,29,11.50
2018,05,06,01,30,11.50
2018,05,06,01,31,11.50
2018,05,06,01,32,11.50
2018,05,06,01,33,11.40
2018,05,06,01,34,11.40
2018,05,06,01,35,11.40
2018,05,06,01,36,11.40
2018,05,06,01,37,11.40
2018,05,06,01,38,11.30
2018,05,06,01,39,11.30
2018,05,06,01,40,11.30
2018,05,06,01,41,11.30
2018,05,06,01,42,11.30
2018,05,06,01,43,11.30
2018,05,06,01,44,11.30
2018,05,06,01,45,11.30
2018,05,06,01,46,11.30
2018,05,06,01,47,11.30
2018,05,06,01,48,11.30
2018,05,06,01,49,11.30
2018,05,06,01,50,11.30
2018,05,06,01,51,11.30
2018,05,06,01,52,11.30
2018,05,06,01,53,11.30
2018,05,06,01,54,11.20
2018,05,06,01,55,11.20
2018,05,06,01,56,11.20
2018,05,06,01,57,11.20
2018,05,06,01,58,11.20
2018,05,06,01,59,11.10
2018,05,06,02,00,11.10
2018,05,06,02,01,11.10
2018,05,06,02,02,11.00
2018,05,06,02,03,11.00
2018,05,06,02,04,11.00
2018,05,06,02,05,10.90
2018,05,06,02,06,10.90
2018,05,06,02,07,10.90
2018,05,06,02,08,10.90
2018,05,06,02,09,10.90
2018,05,06,02,10,10.80
2018,05,06,02,11,10.80
2018,05,06,02,12,10.80
2018,05,06,02,13,10.80
2018,05,06,02,14,10.70
2018,05,06,02,15,10.70
2018,05,06,02,16,10.70
2018,05,06,02,17,10.70
2018,05,06,02,18,10.70
2018,05,06,02,19,10.70
2018,05,06,02,20,10.70
2018,05,06,02,21,10.60
2018,05,06,02,22,10.60
2018,05,06,02,23,10.60
2018,05,06,02,24,10.60
2018,05,06,02,25,10.60
2018,05,06,02,26,10.60
2018,05,06,02,27,10.60
2018,05,06,02,28,10.50
2018,05,06,02,29,10.50
2018,05,06,02,30,10.50
2018,05,06,02,31,10.40
2018,05,06,02,32,10.40
2018,05,06,02,33,10.40
2018,05,06,02,34,10.40
2018,05,06,02,35,10.30
2018,05,06,02,36,10.30
2018,05,06,02,37,10.30
2018,05,06,02,38,10.30
2018,05,06,02,39,10.30
2018,05,06,02,40,10.20
2018,05,06,02,41,10.20
2018,05,06,02,42,10.20
2018,05,06,02,43,10.20
2018,05,06,02,44,10.20
2018,05,06,02,45,10.20
2018,05,06,02,46,10.20
2018,05,06,02,47,10.20
2018,05,06,02,48,10.20
2018,05,06,02,49,10.10
2018,05,06,02,50,10.10
2018,05,06,02,51,10.10
2018,05,06,02,52,10.10
2018,05,06,02,53,10.10
2018,05,06,02,54,10.10
2018,05,06,02,55,10.10
2018,05,06,02,56,10.00
2018,05,06,02,57,10.00
2018,05,06,02,58,10.00
2018,05,06,02,59,10.00
2018,05,06,03,00,10.00
2018,05,06,03,01,10.00
2018,05,06,03,02,9.90
2018,05,06,03,03,9.90
2018,05,06,03,04,9.90
2018,05,06,03,05,9.90
2018,05,06,03,06,9.90
2018,05,06,03,07,9.90
2018,05,06,03,08,9.90
2018,05,06,03,09,9.90
2018,05,06,03,10,9.90
2018,05,06,03,11,9.90
2018,05,06,03,12,9.90
2018,05,06,03,13,9.90
2018,05,06,03,14,9.90
2018,05,06,03,15,9.90
2018,05,06,03,16,9.90
2018,05,06,03,17,9.90
2018,05,06,03,18,9.90
2018,05,06,03,19,9.90
2018,05,06,03,20,9.90
2018,05,06,03,21,9.90
2018,05,06,03,22,9.80
2018,05,06,03,23,9.80
2018,05,06,03,24,9.90
2018,05,06,03,25,9.90
2018,05,06,03,26,9.90
2018,05,06,03,27,9.80
2018,05,06,03,28,9.80
2018,05,06,03,29,9.80
2018,05,06,03,30,9.80
2018,05,06,03,31,9.90
2018,05,06,03,32,9.90
2018,05,06,03,33,9.90
2018,05,06,03,34,9.80
2018,05,06,03,35,9.80
2018,05,06,03,36,9.80
2018,05,06,03,37,9.80
2018,05,06,03,38,9.80
2018,05,06,03,39,9.80
2018,05,06,03,40,9.80
2018,05,06,03,41,9.80
2018,05,06,03,42,9.80
2018,05,06,03,43,9.70
2018,05,06,03,44,9.70
2018,05,06,03,45,9.70
2018,05,06,03,46,9.70
2018,05,06,03,47,9.70
2018,05,06,03,48,9.60
2018,05,06,03,49,9.60
2018,05,06,03,50,9.60
2018,05,06,03,51,9.60
2018,05,06,03,52,9.60
2018,05,06,03,53,9.60
2018,05,06,03,54,9.60
2018,05,06,03,55,9.70
2018,05,06,03,56,9.60
2018,05,06,03,57,9.60
2018,05,06,03,58,9.60
2018,05,06,03,59,9.60
2018,05,06,04,00,9.60
2018,05,06,04,01,9.60
2018,05,06,04,02,9.60
2018,05,06,04,03,9.60
2018,05,06,04,04,9.50
2018,05,06,04,05,9.50
2018,05,06,04,06,9.50
2018,05,06,04,07,9.40
2018,05,06,04,08,9.40
2018,05,06,04,09,9.40
2018,05,06,04,10,9.40
2018,05,06,04,11,9.40
2018,05,06,04,12,9.40
2018,05,06,04,13,9.40
2018,05,06,04,14,9.40
2018,05,06,04,15,9.40
2018,05,06,04,16,9.40
2018,05,06,04,17,9.40
2018,05,06,04,18,9.30
2018,05,06,04,19,9.30
2018,05,06,04,20,9.30
2018,05,06,04,21,9.30
2018,05,06,04,22,9.30
2018,05,06,04,23,9.30
2018,05,06,04,24,9.30
2018,05,06,04,25,9.30
2018,05,06,04,26,9.20
2018,05,06,04,27,9.20
2018,05,06,04,28,9.20
2018,05,06,04,29,9.20
2018,05,06,04,30,9.20
2018,05,06,04,31,9.20
2018,05,06,04,32,9.30
2018,05,06,04,33,9.30
2018,05,06,04,34,9.30
2018,05,06,04,35,9.30
2018,05,06,04,36,9.30
2018,05,06,04,37,9.30
2018,05,06,04,38,9.30
2018,05,06,04,39,9.30
2018,05,06,04,40,9.30
2018,05,06,04,41,9.30
2018,05,06,04,42,9.30
2018,05,06,04,43,9.30
2018,05,06,04,44,9.30
2018,05,06,04,45,9.30
2018,05,06,04,46,9.30
2018,05,06,04,47,9.20
2018,05,06,04,48,9.20
2018,05,06,04,49,9.20
2018,05,06,04,50,9.20
2018,05,06,04,51,9.20
2018,05,06,04,52,9.20
2018,05,06,04,53,9.20
2018,05,06,04,54,9.20
2018,05,06,04,55,9.20
2018,05,06,04,56,9.20
2018,05,06,04,57,9.20
2018,05,06,04,58,9.20
2018,05,06,04,59,9.10
2018,05,06,05,00,9.20
2018,05,06,05,01,9.20
2018,05,06,05,02,9.20
2018,05,06,05,03,9.20
2018,05,06,05,04,9.20
2018,05,06,05,05,9.20
2018,05,06,05,06,9.20
2018,05,06,05,07,9.20
2018,05,06,05,08,9.20
2018,05,06,05,09,9.20
2018,05,06,05,10,9.20
2018,05,06,05,11,9.20
2018,05,06,05,12,9.20
2018,05,06,05,13,9.20
2018,05,06,05,14,9.20
2018,05,06,05,15,9.20
2018,05,06,05,16,9.20
2018,05,06,05,17,9.20
2018,05,06,05,18,9.20
2018,05,06,05,19,9.20
2018,05,06,05,20,9.20
2018,05,06,05,21,9.20
2018,05,06,05,22,9.20
2018,05,06,05,23,9.20
2018,05,06,05,24,9.20
2018,05,06,05,25,9.20
2018,05,06,05,26,9.20
2018,05,06,05,27,9.20
2018,05,06,05,28,9.20
2018,05,06,05,29,9.20
2018,05,06,05,30,9.20
2018,05,06,05,31,9.20
2018,05,06,05,32,9.20
2018,05,06,05,33,9.20
2018,05,06,05,34,9.20
2018,05,06,05,35,9.20
2018,05,06,05,36,9.20
2018,05,06,05,37,9.10
2018,05,06,05,38,9.10
2018,05,06,05,39,9.10
2018,05,06,05,40,9.10
2018,05,06,05,41,9.10
2018,05,06,05,42,9.10
2018,05,06,05,43,9.10
2018,05,06,05,44,9.00
2018,05,06,05,45,9.00
2018,05,06,05,46,9.00
2018,05,06,05,47,9.00
2018,05,06,05,48,9.00
2018,05,06,05,49,8.90
2018,05,06,05,50,8.90
2018,05,06,05,51,8.90
2018,05,06,05,52,8.90
2018,05,06,05,53,8.90
2018,05,06,05,54,8.90
2018,05,06,05,55,8.90
2018,05,06,05,56,8.90
2018,05,06,05,57,8.90
2018,05,06,05,58,8.90
2018,05,06,05,59,8.90
2018,05,06,06,00,8.90
2018,05,06,06,01,9.00
2018,05,06,06,02,9.00
2018,05,06,06,03,9.00
2018,05,06,06,04,9.00
2018,05,06,06,05,9.00
2018,05,06,06,06,9.10
2018,05,06,06,07,9.10
2018,05,06,06,08,9.10
2018,05,06,06,09,9.10
2018,05,06,06,10,9.10
2018,05,06,06,11,9.10
2018,05,06,06,12,9.10
2018,05,06,06,13,9.10
2018,05,06,06,14,9.10
2018,05,06,06,15,9.10
2018,05,06,06,16,9.10
2018,05,06,06,17,9.10
2018,05,06,06,18,9.10
2018,05,06,06,19,9.10
2018,05,06,06,20,9.20
2018,05,06,06,21,9.20
2018,05,06,06,22,9.20
2018,05,06,06,23,9.20
2018,05,06,06,24,9.20
2018,05,06,06,25,9.20
2018,05,06,06,26,9.20
2018,05,06,06,27,9.20
2018,05,06,06,28,9.20
2018,05,06,06,29,9.20
2018,05,06,06,30,9.20
2018,05,06,06,31,9.20
2018,05,06,06,32,9.20
2018,05,06,06,33,9.20
2018,05,06,06,34,9.20
2018,05,06,06,35,9.20
2018,05,06,06,36,9.30
2018,05,06,06,37,9.30
2018,05,06,06,38,9.30
2018,05,06,06,39,9.30
2018,05,06,06,40,9.30
2018,05,06,06,41,9.30
2018,05,06,06,42,9.30
2018,05,06,06,43,9.30
2018,05,06,06,44,9.30
2018,05,06,06,45,9.30
2018,05,06,06,46,9.30
2018,05,06,06,47,9.30
2018,05,06,06,48,9.30
2018,05,06,06,49,9.30
2018,05,06,06,50,9.30
2018,05,06,06,51,9.30
2018,05,06,06,52,9.40
2018,05,06,06,53,9.40
2018,05,06,06,54,9.40
2018,05,06,06,55,9.40
2018,05,06,06,56,9.50
2018,05,06,06,57,9.50
2018,05,06,06,58,9.60
2018,05,06,06,59,9.60
2018,05,06,07,00,9.70
2018,05,06,07,01,9.70
2018,05,06,07,02,9.70
2018,05,06,07,03,9.80
2018,05,06,07,04,9.80
2018,05,06,07,05,9.80
2018,05,06,07,06,9.90
2018,05,06,07,07,9.90
2018,05,06,07,08,9.90
2018,05,06,07,09,9.90
2018,05,06,07,10,9.90
2018,05,06,07,11,10.00
2018,05,06,07,12,10.00
2018,05,06,07,13,10.00
2018,05,06,07,14,10.00
2018,05,06,07,15,10.00
2018,05,06,07,16,10.00
2018,05,06,07,17,10.00
2018,05,06,07,18,9.90
2018,05,06,07,19,9.90
2018,05,06,07,20,9.90
2018,05,06,07,21,9.90
2018,05,06,07,22,9.90
2018,05,06,07,23,9.90
2018,05,06,07,24,9.90
2018,05,06,07,25,9.90
2018,05,06,07,26,9.90
2018,05,06,07,27,9.90
2018,05,06,07,28,10.00
2018,05,06,07,29,10.00
2018,05,06,07,30,10.00
2018,05,06,07,31,10.00
2018,05,06,07,32,10.00
2018,05,06,07,33,10.00
2018,05,06,07,34,10.00
2018,05,06,07,35,10.00
2018,05,06,07,36,10.00
2018,05,06,07,37,10.00
2018,05,06,07,38,10.00
2018,05,06,07,39,10.10
2018,05,06,07,40,10.10
2018,05,06,07,41,10.10
2018,05,06,07,42,10.10
2018,05,06,07,43,10.20
2018,05,06,07,44,10.20
2018,05,06,07,45,10.20
2018,05,06,07,46,10.20
2018,05,06,07,47,10.20
2018,05,06,07,48,10.30
2018,05,06,07,49,10.30
2018,05,06,07,50,10.30
2018,05,06,07,51,10.30
2018,05,06,07,52,10.30
2018,05,06,07,53,10.30
2018,05,06,07,54,10.30
2018,05,06,07,55,10.30
2018,05,06,07,56,10.30
2018,05,06,07,57,10.30
2018,05,06,07,58,10.30
2018,05,06,07,59,10.30
2018,05,06,08,00,10.30
2018,05,06,08,01,10.30
2018,05,06,08,02,10.30
2018,05,06,08,03,10.40
2018,05,06,08,04,10.40
2018,05,06,08,05,10.40
2018,05,06,08,06,10.40
2018,05,06,08,07,10.40
2018,05,06,08,08,10.40
2018,05,06,08,09,10.40
2018,05,06,08,10,10.40
2018,05,06,08,11,10.40
2018,05,06,08,12,10.40
2018,05,06,08,13,10.50
2018,05,06,08,14,10.50
2018,05,06,08,15,10.60
2018,05,06,08,16,10.60
2018,05,06,08,17,10.60
2018,05,06,08,18,10.70
2018,05,06,08,19,10.70
2018,05,06,08,20,10.70
2018,05,06,08,21,10.80
2018,05,06,08,22,10.80
2018,05,06,08,23,10.80
2018,05,06,08,24,10.80
2018,05,06,08,25,10.80
2018,05,06,08,26,10.80
2018,05,06,08,27,10.80
2018,05,06,08,28,10.80
2018,05,06,08,29,10.80
2018,05,06,08,30,10.80
2018,05,06,08,31,10.90
2018,05,06,08,32,10.90
2018,05,06,08,33,10.90
2018,05,06,08,34,10.90
2018,05,06,08,35,10.90
2018,05,06,08,36,10.90
2018,05,06,08,37,10.90
2018,05,06,08,38,11.00
2018,05,06,08,39,10.90
2018,05,06,08,40,10.90
2018,05,06,08,41,10.90
2018,05,06,08,42,10.90
2018,05,06,08,43,10.90
2018,05,06,08,44,10.90
2018,05,06,08,45,11.00
2018,05,06,08,46,11.00
2018,05,06,08,47,11.00
2018,05,06,08,48,11.10
2018,05,06,08,49,11.10
2018,05,06,08,50,11.10
2018,05,06,08,51,11.10
2018,05,06,08,52,11.10
2018,05,06,08,53,11.10
2018,05,06,08,54,11.10
2018,05,06,08,55,11.10
2018,05,06,08,56,11.10
2018,05,06,08,57,11.20
2018,05,06,08,58,11.20
2018,05,06,08,59,11.20
2018,05,06,09,00,11.20
2018,05,06,09,01,11.30
2018,05,06,09,02,11.30
2018,05,06,09,03,11.40
2018,05,06,09,04,11.40
2018,05,06,09,05,11.50
2018,05,06,09,06,11.50
2018,05,06,09,07,11.50
2018,05,06,09,08,11.60
2018,05,06,09,09,11.60
2018,05,06,09,10,11.60
2018,05,06,09,11,11.70
2018,05,06,09,12,11.70
2018,05,06,09,13,11.70
2018,05,06,09,14,11.70
2018,05,06,09,15,11.70
2018,05,06,09,16,11.80
2018,05,06,09,17,11.80
2018,05,06,09,18,11.80
2018,05,06,09,19,11.90
2018,05,06,09,20,11.90
2018,05,06,09,21,11.90
2018,05,06,09,22,12.00
2018,05,06,09,23,12.10
2018,05,06,09,24,12.10
2018,05,06,09,25,12.10
2018,05,06,09,26,12.20
2018,05,06,09,27,12.20
2018,05,06,09,28,12.20
2018,05,06,09,29,12.20
2018,05,06,09,30,12.30
2018,05,06,09,31,12.30
2018,05,06,09,32,12.30
2018,05,06,09,33,12.30
2018,05,06,09,34,12.30
2018,05,06,09,35,12.40
2018,05,06,09,36,12.40
2018,05,06,09,37,12.40
2018,05,06,09,38,12.50
2018,05,06,09,39,12.50
2018,05,06,09,40,12.60
2018,05,06,09,41,12.60
2018,05,06,09,42,12.60
2018,05,06,09,43,12.70
2018,05,06,09,44,12.70
2018,05,06,09,45,12.70
2018,05,06,09,46,12.70
2018,05,06,09,47,12.70
2018,05,06,09,48,12.70
2018,05,06,09,49,12.80
2018,05,06,09,50,12.80
2018,05,06,09,51,12.80
2018,05,06,09,52,12.90
2018,05,06,09,53,12.90
2018,05,06,09,54,13.00
2018,05,06,09,55,13.00
2018,05,06,09,56,13.10
2018,05,06,09,57,13.10
2018,05,06,09,58,13.20
2018,05,06,09,59,13.20
2018,05,06,10,00,13.20
2018,05,06,10,01,13.20
2018,05,06,10,02,13.20
2018,05,06,10,03,13.30
2018,05,06,10,04,13.30
2018,05,06,10,05,13.30
2018,05,06,10,06,13.30
2018,05,06,10,07,13.30
2018,05,06,10,08,13.40
2018,05,06,10,09,13.40
2018,05,06,10,10,13.40
2018,05,06,10,11,13.40
2018,05,06,10,12,13.40
2018,05,06,10,13,13.40
2018,05,06,10,14,13.40
2018,05,06,10,15,13.40
2018,05,06,10,16,13.40
2018,05,06,10,17,13.40
2018,05,06,10,18,13.50
2018,05,06,10,19,13.60
2018,05,06,10,20,13.60
2018,05,06,10,21,13.70
2018,05,06,10,22,13.70
2018,05,06,10,23,13.70
2018,05,06,10,24,13.70
2018,05,06,10,25,13.70
2018,05,06,10,26,13.70
2018,05,06,10,27,13.80
2018,05,06,10,28,13.80
2018,05,06,10,29,13.80
2018,05,06,10,30,13.80
2018,05,06,10,31,13.90
2018,05,06,10,32,13.90
2018,05,06,10,33,14.00
2018,05,06,10,34,14.00
2018,05,06,10,35,14.00
2018,05,06,10,36,14.00
2018,05,06,10,37,14.10
2018,05,06,10,38,14.10
2018,05,06,10,39,14.10
2018,05,06,10,40,14.10
2018,05,06,10,41,14.10
2018,05,06,10,42,14.00
2018,05,06,10,43,14.10
2018,05,06,10,44,14.10
2018,05,06,10,45,14.10
2018,05,06,10,46,14.10
2018,05,06,10,47,14.20
2018,05,06,10,48,14.20
2018,05,06,10,49,14.20
2018,05,06,10,50,14.30
2018,05,06,10,51,14.30
2018,05,06,10,52,14.30
2018,05,06,10,53,14.30
2018,05,06,10,54,14.40
2018,05,06,10,55,14.40
2018,05,06,10,56,14.40
2018,05,06,10,57,14.40
2018,05,06,10,58,14.40
2018,05,06,10,59,14.40
2018,05,06,11,00,14.40
2018,05,06,11,01,14.40
2018,05,06,11,02,14.50
2018,05,06,11,03,14.50
2018,05,06,11,04,14.50
2018,05,06,11,05,14.50
2018,05,06,11,06,14.60
2018,05,06,11,07,14.60
2018,05,06,11,08,14.70
2018,05,06,11,09,14.70
2018,05,06,11,10,14.70
2018,05,06,11,11,14.70
2018,05,06,11,12,14.70
2018,05,06,11,13,14.70
2018,05,06,11,14,14.80
2018,05,06,11,15,14.80
2018,05,06,11,16,14.80
2018,05,06,11,17,14.90
2018,05,06,11,18,14.90
2018,05,06,11,19,14.90
2018,05,06,11,20,15.00
2018,05,06,11,21,15.00
2018,05,06,11,22,15.10
2018,05,06,11,23,15.10
2018,05,06,11,24,15.10
2018,05,06,11,25,15.20
2018,05,06,11,26,15.20
2018,05,06,11,27,15.20
2018,05,06,11,28,15.20
2018,05,06,11,29,15.30
2018,05,06,11,30,15.40
2018,05,06,11,31,15.50
2018,05,06,11,32,15.60
2018,05,06,11,33,15.60
2018,05,06,11,34,15.70
2018,05,06,11,35,15.80
2018,05,06,11,36,15.80
2018,05,06,11,37,15.90
2018,05,06,11,38,15.90
2018,05,06,11,39,16.00
2018,05,06,11,40,16.00
2018,05,06,11,41,16.10
2018,05,06,11,42,16.10
2018,05,06,11,43,16.10
2018,05,06,11,44,16.10
2018,05,06,11,45,16.20
2018,05,06,11,46,16.20
2018,05,06,11,47,16.30
2018,05,06,11,48,16.30
2018,05,06,11,49,16.30
2018,05,06,11,50,16.30
2018,05,06,11,51,16.40
2018,05,06,11,52,16.50
2018,05,06,11,53,16.60
2018,05,06,11,54,16.70
2018,05,06,11,55,16.70
2018,05,06,11,56,16.70
2018,05,06,11,57,16.70
2018,05,06,11,58,16.80
2018,05,06,11,59,16.80
2018,05,06,12,00,16.80
2018,05,06,12,01,16.80
2018,05,06,12,02,16.80
2018,05,06,12,03,16.90
2018,05,06,12,04,16.90
2018,05,06,12,05,16.90
2018,05,06,12,06,16.90
2018,05,06,12,07,17.00
2018,05,06,12,08,17.00
2018,05,06,12,09,17.10
2018,05,06,12,10,17.10
2018,05,06,12,11,17.20
2018,05,06,12,12,17.20
2018,05,06,12,13,17.30
2018,05,06,12,14,17.30
2018,05,06,12,15,17.40
2018,05,06,12,16,17.40
2018,05,06,12,17,17.50
2018,05,06,12,18,17.50
2018,05,06,12,19,17.50
2018,05,06,12,20,17.50
2018,05,06,12,21,17.50
2018,05,06,12,22,17.40
2018,05,06,12,23,17.40
2018,05,06,12,24,17.40
2018,05,06,12,25,17.50
2018,05,06,12,26,17.60
2018,05,06,12,27,17.60
2018,05,06,12,28,17.70
2018,05,06,12,29,17.70
2018,05,06,12,30,17.80
2018,05,06,12,31,17.80
2018,05,06,12,32,17.80
2018,05,06,12,33,17.80
2018,05,06,12,34,17.80
2018,05,06,12,35,17.80
2018,05,06,12,36,17.80
2018,05,06,12,37,17.90
2018,05,06,12,38,17.90
2018,05,06,12,39,18.00
2018,05,06,12,40,18.00
2018,05,06,12,41,18.10
2018,05,06,12,42,18.10
2018,05,06,12,43,18.10
2018,05,06,12,44,18.10
2018,05,06,12,45,18.10
2018,05,06,12,46,18.20
2018,05,06,12,47,18.20
2018,05,06,12,48,18.20
2018,05,06,12,49,18.30
2018,05,06,12,50,18.40
2018,05,06,12,51,18.50
2018,05,06,12,52,18.60
2018,05,06,12,53,18.70
2018,05,06,12,54,18.80
2018,05,06,12,55,18.90
2018,05,06,12,56,19.00
2018,05,06,12,57,19.10
2018,05,06,12,58,19.30
2018,05,06,12,59,19.30
2018,05,06,13,00,19.50
2018,05,06,13,01,19.60
2018,05,06,13,02,19.70
2018,05,06,13,03,19.70
2018,05,06,13,04,19.70
2018,05,06,13,05,19.70
2018,05,06,13,06,19.60
2018,05,06,13,07,19.50
2018,05,06,13,08,19.40
2018,05,06,13,09,19.40
2018,05,06,13,10,19.40
2018,05,06,13,11,19.40
2018,05,06,13,12,19.50
2018,05,06,13,13,19.50
2018,05,06,13,14,19.70
2018,05,06,13,15,19.80
2018,05,06,13,16,19.90
2018,05,06,13,17,20.00
2018,05,06,13,18,20.00
2018,05,06,13,19,20.10
2018,05,06,13,20,20.20
2018,05,06,13,21,20.30
2018,05,06,13,22,20.40
2018,05,06,13,23,20.40
2018,05,06,13,24,20.60
2018,05,06,13,25,20.60
2018,05,06,13,26,20.70
2018,05,06,13,27,20.70
2018,05,06,13,28,20.70
2018,05,06,13,29,20.70
2018,05,06,13,30,20.80
2018,05,06,13,31,20.80
2018,05,06,13,32,20.90
2018,05,06,13,33,20.90
2018,05,06,13,34,21.00
2018,05,06,13,35,21.10
2018,05,06,13,36,21.10
2018,05,06,13,37,21.10
2018,05,06,13,38,21.10
2018,05,06,13,39,21.10
2018,05,06,13,40,21.10
2018,05,06,13,41,21.20
2018,05,06,13,42,21.30
2018,05,06,13,43,21.30
2018,05,06,13,44,21.30
2018,05,06,13,45,21.40
2018,05,06,13,46,21.50
2018,05,06,13,47,21.50
2018,05,06,13,48,21.50
2018,05,06,13,49,21.50
2018,05,06,13,50,21.50
2018,05,06,13,51,21.50
2018,05,06,13,52,21.50
2018,05,06,13,53,21.40
2018,05,06,13,54,21.40
2018,05,06,13,55,21.40
2018,05,06,13,56,21.50
2018,05,06,13,57,21.50
2018,05,06,13,58,21.50
2018,05,06,13,59,21.50
2018,05,06,14,00,21.60
2018,05,06,14,01,21.60
2018,05,06,14,02,21.70
2018,05,06,14,03,21.70
2018,05,06,14,04,21.70
2018,05,06,14,05,21.80
2018,05,06,14,06,21.80
2018,05,06,14,07,21.80
2018,05,06,14,08,21.80
2018,05,06,14,09,21.80
2018,05,06,14,10,21.70
2018,05,06,14,11,21.70
2018,05,06,14,12,21.70
2018,05,06,14,13,21.70
2018,05,06,14,14,21.60
2018,05,06,14,15,21.60
2018,05,06,14,16,21.60
2018,05,06,14,17,21.60
2018,05,06,14,18,21.60
2018,05,06,14,19,21.70
2018,05,06,14,20,21.60
2018,05,06,14,21,21.60
2018,05,06,14,22,21.50
2018,05,06,14,23,21.40
2018,05,06,14,24,21.40
2018,05,06,14,25,21.30
2018,05,06,14,26,21.20
2018,05,06,14,27,21.20
2018,05,06,14,28,21.10
2018,05,06,14,29,21.10
2018,05,06,14,30,21.10
2018,05,06,14,31,21.10
2018,05,06,14,32,21.00
2018,05,06,14,33,21.00
2018,05,06,14,34,20.90
2018,05,06,14,35,20.90
2018,05,06,14,36,20.90
2018,05,06,14,37,20.90
2018,05,06,14,38,21.00
2018,05,06,14,39,21.10
2018,05,06,14,40,21.10
2018,05,06,14,41,21.00
2018,05,06,14,42,21.00
2018,05,06,14,43,20.90
2018,05,06,14,44,21.00
2018,05,06,14,45,21.00
2018,05,06,14,46,21.10
2018,05,06,14,47,21.10
2018,05,06,14,48,21.00
2018,05,06,14,49,21.00
2018,05,06,14,50,21.10
2018,05,06,14,51,21.10
2018,05,06,14,52,21.10
2018,05,06,14,53,21.10
2018,05,06,14,54,21.10
2018,05,06,14,55,21.10
2018,05,06,14,56,21.10
2018,05,06,14,57,21.10
2018,05,06,14,58,21.20
2018,05,06,14,59,21.20
2018,05,06,15,00,21.30
2018,05,06,15,01,21.30
2018,05,06,15,02,21.40
2018,05,06,15,03,21.50
2018,05,06,15,04,21.50
2018,05,06,15,05,21.50
2018,05,06,15,06,21.50
2018,05,06,15,07,21.50
2018,05,06,15,08,21.50
2018,05,06,15,09,21.40
2018,05,06,15,10,21.40
2018,05,06,15,11,21.40
2018,05,06,15,12,21.40
2018,05,06,15,13,21.40
2018,05,06,15,14,21.50
2018,05,06,15,15,21.50
2018,05,06,15,16,21.60
2018,05,06,15,17,21.70
2018,05,06,15,18,21.70
2018,05,06,15,19,21.80
2018,05,06,15,20,21.80
2018,05,06,15,21,21.90
2018,05,06,15,22,22.00
2018,05,06,15,23,22.00
2018,05,06,15,24,22.10
2018,05,06,15,25,22.10
2018,05,06,15,26,22.10
2018,05,06,15,27,22.10
2018,05,06,15,28,22.00
2018,05,06,15,29,21.90
2018,05,06,15,30,21.90
2018,05,06,15,31,21.90
2018,05,06,15,32,21.90
2018,05,06,15,33,21.90
2018,05,06,15,34,21.90
2018,05,06,15,35,21.90
2018,05,06,15,36,22.00
2018,05,06,15,37,22.00
2018,05,06,15,38,22.00
2018,05,06,15,39,22.00
2018,05,06,15,40,21.90
2018,05,06,15,41,21.90
2018,05,06,15,42,21.90
2018,05,06,15,43,21.90
2018,05,06,15,44,22.00
2018,05,06,15,45,22.00
2018,05,06,15,46,22.00
2018,05,06,15,47,22.00
2018,05,06,15,48,22.00
2018,05,06,15,49,22.00
2018,05,06,15,50,22.00
2018,05,06,15,51,22.10
2018,05,06,15,52,22.10
2018,05,06,15,53,22.10
2018,05,06,15,54,22.20
2018,05,06,15,55,22.20
2018,05,06,15,56,22.20
2018,05,06,15,57,22.20
2018,05,06,15,58,22.10
2018,05,06,15,59,22.20
2018,05,06,16,00,22.20
2018,05,06,16,01,22.20
2018,05,06,16,02,22.20
2018,05,06,16,03,22.30
2018,05,06,16,04,22.30
2018,05,06,16,05,22.30
2018,05,06,16,06,22.30
2018,05,06,16,07,22.30
2018,05,06,16,08,22.30
2018,05,06,16,09,22.30
2018,05,06,16,10,22.40
2018,05,06,16,11,22.40
2018,05,06,16,12,22.40
2018,05,06,16,13,22.40
2018,05,06,16,14,22.50
2018,05,06,16,15,22.40
2018,05,06,16,16,22.40
2018,05,06,16,17,22.40
2018,05,06,16,18,22.50
2018,05,06,16,19,22.50
2018,05,06,16,20,22.50
2018,05,06,16,21,22.50
2018,05,06,16,22,22.50
2018,05,06,16,23,22.40
2018,05,06,16,24,22.30
2018,05,06,16,25,22.30
2018,05,06,16,26,22.20
2018,05,06,16,27,22.10
2018,05,06,16,28,22.00
2018,05,06,16,29,21.90
2018,05,06,16,30,21.90
2018,05,06,16,31,21.80
2018,05,06,16,32,21.80
2018,05,06,16,33,21.80
2018,05,06,16,34,21.80
2018,05,06,16,35,21.90
2018,05,06,16,36,21.90
2018,05,06,16,37,22.00
2018,05,06,16,38,22.00
2018,05,06,16,39,22.10
2018,05,06,16,40,22.10
2018,05,06,16,41,22.00
2018,05,06,16,42,22.00
2018,05,06,16,43,21.90
2018,05,06,16,44,21.90
2018,05,06,16,45,21.90
2018,05,06,16,46,21.80
2018,05,06,16,47,21.80
2018,05,06,16,48,21.70
2018,05,06,16,49,21.60
2018,05,06,16,50,21.60
2018,05,06,16,51,21.50
2018,05,06,16,52,21.50
2018,05,06,16,53,21.50
2018,05,06,16,54,21.50
2018,05,06,16,55,21.50
2018,05,06,16,56,21.50
2018,05,06,16,57,21.40
2018,05,06,16,58,21.40
2018,05,06,16,59,21.40
2018,05,06,17,00,21.40
2018,05,06,17,01,21.40
2018,05,06,17,02,21.40
2018,05,06,17,03,21.50
2018,05,06,17,04,21.50
2018,05,06,17,05,21.50
2018,05,06,17,06,21.60
2018,05,06,17,07,21.60
2018,05,06,17,08,21.60
2018,05,06,17,09,21.60
2018,05,06,17,10,21.50
2018,05,06,17,11,21.50
2018,05,06,17,12,21.40
2018,05,06,17,13,21.30
2018,05,06,17,14,21.30
2018,05,06,17,15,21.30
2018,05,06,17,16,21.40
2018,05,06,17,17,21.40
2018,05,06,17,18,21.40
2018,05,06,17,19,21.40
2018,05,06,17,20,21.40
2018,05,06,17,21,21.50
2018,05,06,17,22,21.50
2018,05,06,17,23,21.50
2018,05,06,17,24,21.60
2018,05,06,17,25,21.60
2018,05,06,17,26,21.60
2018,05,06,17,27,21.60
2018,05,06,17,28,21.60
2018,05,06,17,29,21.50
2018,05,06,17,30,21.50